STARLINK-1771, 46384

Orbit data source: Space-Track

STARLINK-1771, 46384 is a payload satellite owned by SpaceX/Seattle (US) in LEO that was launched on Thu, 03 Sep 2020 UTC via an FALCON 9 launch vehicle from the Air Force Eastern Test Range (AFETR). Payload-class satellites include a variety of spacecraft equipped with specific instruments for various scientific and technological missions. These include communications satellites like Starlink; space stations such as the ISS; scientific satellites like the Hubble; Earth observation satellites from companies like Planet Labs, Umbra, and HawkEye 360; GPS; miniature CubeSats for education and research; and military/defense satellites.

Loading next visibility...
Identifier
46384, 2020-062BM
Orbit
LEO
Country
Flag of USUS
Related business
Manufacturer
SpaceX/Seattle
Mission
Partially operational Commercial Communications
Bus & Motor
STARLINK, Unknown motor
Mass
260 kg wet, ~248 kg dry
Launch date (UTC)
2020-09-03 (6 years ago)
Launch vehicle
FALCON 9
Launch site
Air Force Eastern Test Range (AFETR)
Object type
Payload
Rocket body
Debris
Shape & HBR
Box + 1 Pan, 10.1 m
Radar Cross Section
13.562 m², Large (>1 m²)

Expand to show TLE details & history
Last TLE update: 12 hours ago

TLE from 12 hours ago
0 STARLINK-1771
1 46384U 20062BM  26166.46345807  .00033511  00000-0  36385-3 0  9994
2 46384  53.0369 233.6985 0003337  27.5036 332.6153 15.63201001319946
Epoch: 2026-06-15T11:07Z
TLE epoch observation values (Epoch: 2026-06-15T11:07:22.777Z)
Latitude
-0.00005°
Longitude
163.10408°
Altitude
377.315 km
Speed
7.686 km/s
True Right ascension
15h 34m 47s
True Declination
0° 00' 00"
Sunlit
Object was in full shadow at epoch
Visualization orbit readout
Latitude
Unknown
Longitude
Unknown
Altitude
Unknown
Speed
Unknown
Apparent Right ascension
Unknown
Apparent Declination
Unknown
Sunlit
N/A
Visualization observer readout
Local Sidereal Time
10:02:41
Azimuth
Unknown
Elevation
Unknown
Doppler factor
Unknown
Orbital elements
Apogee altitude
380.953 km
Perigee altitude
376.443 km
Semi-major axis
6,756.835 km
Eccentricity
0.00033
Inclination
53.0369°
RAAN
233.6985°
Arg. of periapsis
27.5036°
True anomaly
332.5977°
Mean anomaly
332.6153°
Eccentric anomaly
332.6065°
Mean motion
3.90776 °/min
Orbital period
92.12 mins
BSTAR
0.00036385
Loading maneuver chart data...
Computing Atmospheric mass density...

Documentation

Showing up to 5 results
|